Back to catalog

COSMOS 2251 DEB

AliveLEO
NORAD 34852·DEBRIS·🇷🇺 Russia

Launched Jun 16, 1993 from Plesetsk Cosmodrome

Loading…

Next Passes (next 24 hours)

TLE

AgingSource: Space-Track

Epoch: Sep 12, 2026, 07:38 UTC

1 34852U 93036ABW 26255.31821011  .00000170  00000-0  65835-4 0  9999
2 34852  74.0314 119.7500 0016262 164.2230 195.9433 14.37170103914646

Track COSMOS 2251 DEB in real time with AllMySat

Download on the App Store